Погода в Урицке

Погода в Урицке : погода сейчас, прогноз погоды и архив. Всё, что Вы хотите узнать о погоде в Урицке!

Поиск расширенной информации на нашем сайте:

Другие новости

Новости СМИ2

Главная страница сайта

Новости сайта

03.07.2017

Напоминаем, что на нашем специализированном сайте Метеоцентр.Азия вы можете получить высокодетализированные автоматические прогнозы погоды по пунктам России, СНГ и мира в авиационном формате (включающие направление и скорость ветра, видимость, явления погоды, количество и форму облачности, нижнюю и верхнюю границу облачности).

Рекомендуем: Ролмастер изготовление Рольставней forec.ru.

Погода в Урицке - сегодня

Время (UTC), дата Ветер
(°,м/с) 
Видим.   Явления Облачность Т
(°С)
Тd
(°С)
f(%) Тe
(°С)
Pmin
(гПа)
dP
(гПа)
Po
(мм)
O2
(г/м3)
Тmin Tmax R s Состояние
почвы
18 18.01.18 160 (Ю) н/о    ясно 
-22.7 -26.7 70 -27  1035.7  0.2  754  333    -17.6       
21 18.01.18 тихо ()   н/о    ясно 
-24.3 -27.5 75 -24  1035.6  -0.3  754  335           
00 19.01.18 140 (ЮВ) н/о    ясно 
-25.3 -28.4 75 -26  1036  0.3  754  337           
03 19.01.18 тихо ()   н/о  туман  ясно 
-23.9 -25.1 90 -24  1035.5  -0.4  754  335        равномерный
сухой снег
100% 
06 19.01.18 150 (ЮВ) 0500 м  туман  ясно 
-19.4 -20.6 90 -22  1035.9  755  329  -25.5         
09 19.01.18 тихо ()   20000 м  {туман}  ясно 
-17 -19.6 80 -17  1036.3  0.7  755  326           
12 19.01.18 040 (СВ) 4000 м  дымка{туман}  ясно 
-17.4 -20.8 75 -20  1036.7  0.4  756  327           
15 19.01.18 030 (СВ) н/о  дымка{туман}  ясно 
-21.7 -24.9 75 -22  1038.3  0.9  756  333    -16.8       
18 19.01.18 040 (СВ) н/о  {туман}  ясно 
-22.9 -26.1 75 -28  1038.9  0.4  757  335    -16.8       
21 19.01.18 050 (СВ) н/о    8/8 600 м 
[Sc]
-20.6 -23.9 75 -26  1038.9  0.2  757  331           
00 20.01.18 030 (СВ) н/о    ясно 
-24.5 -27.7 75 -28  1039.1  -0.1  757  337           
03 20.01.18 030 (СВ) н/о    ясно 
-24.9 -28.1 75 -31  1039.6  0.4  757  337        равномерный
сухой снег
100% 
06 20.01.18 040 (СВ) 20000 м    ясно 
-21.9 -25.9 70 -29  1039.8  0.5  757  334  -25.1         
09 20.01.18 040 (СВ) 20000 м    ясно 
-19.5 -23.6 70 -27  1039.4  757  330           
12 20.01.18 040 (СВ) 20000 м    ясно 
-19.8 -23.9 70 -27  1039.1  -0.4  757  331           
15 20.01.18 050 (СВ) н/о    ясно 
-22 -26 70 -29  1039.3  -0.1  757  333    -19.3       
18 20.01.18 050 (СВ) н/о    ясно 
-23.2 -26.4 75 -30  1039.5  0.1  757  335    -19.3       
21 20.01.18 060 (СВ) н/о    ясно 
-24.4 -27.6 75 -31  1039.9  0.3  757  337           
00 21.01.18 050 (СВ) н/о    6/6 600 м 
[Sc]
-24 -27.2 75 -32  1039.6  -0.3  757  336           
03 21.01.18 040 (СВ) н/о    3/3 600 м 
[Sc]
-23.5 -26.7 75 -31  1039.9  0.4  757  336        равномерный
сухой снег
100% 
06 21.01.18 040 (СВ) 20000 м    5/3 600 м верхняя 
[Sc|Ci sp]
-22.8 -25.9 76 -31  1041  1.1  758  335  -24.6         
09 21.01.18 050 (СВ) 20000 м    8/5 600 м верхняя 
[Sc|Ci sp]
-22 -26 70 -31  1041.3  0.4  758  334           
12 21.01.18 040 (СВ) 20000 м    3/0 верхняя 
[Ci sp]
-23.3 -27.2 70 -32  1043  1.5  760  336           
15 21.01.18 050 (СВ) н/о    ясно 
-25.6 -29.5 70 -36  1043.9  0.5  760  340    -21.8       
18 21.01.18 060 (СВ) 10  н/о    ясно 
-27.6 -31.3 71 -39  1046.2  761  343    -21.8       
Время (UTC), дата Ветер
(°,м/с) 
Видим.   Явления Облачность Т
(°С)
Тd
(°С)
f(%) Тe
(°С)
Pmin
(гПа)
dP
(гПа)
Po
(мм)
O2
(г/м3)
Тmin Tmax R s Состояние
почвы

Для получения пояснительной информации подведите курсор к названию столбца.

ПОГОДА в Урицке - архив

Всё, что Вы хотите узнать о погоде в Урицке - удобно и подробно!

Выберите нужную дату (начиная с 1 января 2015* года) и нажмите кнопку "Найти".
Будут отображены архивные сводки погоды по пункту Урицк, начиная с указанной даты.


Отображать данные в формате CSV (для использования в таблицах Excel)


Внимание! Наш архив погоды предназначен исключительно для личного некоммерческого использования в познавательных целях. Если Вам необходимы официальные справки о состоянии погоды (для производственных, юридических, коммерческих и т.п. целей), обращайтесь в органы Росгидромета.

*Примечание: данная дата относится к архиву по метеостанциям СССР (Россия, СНГ, Балтия).
Архив по метеостанциям Зарубежной Европы и Азии (кроме Китая) хранится 10 дней, по другим регионам земного шара (Китай, Африка, Америка, Австралия, Океания) - 1 день.

Урицк - район местоположения метеостанции


Название, широта, долгота, высота метеостанции:
Урицк 53.3°ш. 65.6°д. 216 м над ур. моря [Казахстан]

Дополнительная информация

В oтличие oт бoльшинства пoгoдных сайтoв мы публикуем пoдрoбную метеoинфoрмацию в детальнoм прoфессиoнальнoм фoрмате.

Характеристики температуры и влажнoсти вoздуха измеряются на высoте 2 м в тени вдали oт зданий и деревьев.
Скoрoсть ветра измеряется на высoте 10 м (на урoвне рoста челoвека скoрoсть ветра ниже в 1.5-2 раза). Если метеoстанция нахoдится в гoрoде или в лесу, тo скoрoсть ветра занижена на 2-4 м/с пo сравнению с oткрытым местoм. Скoрoсть ветра над акватoриями крупных рек и oзёр, а также на вершинах хoлмoв на 2-5 м/с выше, чем в oбычных услoвиях.
Атмoсфернoе давление в разных тoчках местнoсти мoжет значительнo oтличаться oт давления на метеoстанции, в зависимoсти oт услoвий рельефа (при пoдъёме на 10 м давление пoнижается примернo на 1 мм рт.ст.).